Torna al catalogo

STARLINK-4756

AttivoComunicazioniVLEO
NORAD 53826·PAYLOAD·🇺🇸 United States

Lanciato Sep 19, 2022 da Cape Canaveral Space Force Station

Loading…

Prossimi Passaggi (prossime 24 ore)

TLE

AggiornatoSource: CelesTrak SupGP

Epoca: Sep 14, 2026, 22:24 UTC

1 53826C 22114J   26257.93381944 -.00029519  00000+0 -87271-3 0  2579
2 53826  53.1586 165.8166 0001125 102.3091   7.8876 15.34385774    16

Traccia STARLINK-4756 in tempo reale con AllMySat

Download on the App Store